Showing default

GEESAT 2-02, 58906

Orbit data source: Space-Track

GEESAT 2-02, 58906 is a payload satellite owned by GeeSpace (CN) in LEO that was launched on Fri, 02 Feb 2024 UTC via a CHANG ZHENG 2C launch vehicle from the Xichang Space Center, China (XSC). Payload-class satellites include a variety of spacecraft equipped with specific instruments for various scientific and technological missions. These include communications satellites like Starlink; space stations such as the ISS; scientific satellites like the Hubble; Earth observation satellites from companies like Planet Labs, Umbra, and HawkEye 360; GPS; miniature CubeSats for education and research; and military/defense satellites.

Loading next visibility...
Identifier
58906, 2024-023B
Orbit
LEO
Country
Flag of CNCN / PRC
Related business
Manufacturer
Taizhou Xingkong
Mission
Operational Commercial Navigation
Bus & Motor
GEESAT1, Unknown motor
Mass
130 kg wet, 130 kg dry
Launch date (UTC)
2024-02-02 (2 years ago)
Launch vehicle
CHANG ZHENG 2C
Launch site
Xichang Space Center, China (XSC)
Object type
Payload
Rocket body
Debris
Shape & HBR
Box + 2 Pan, 1.0 m
Radar Cross Section
0.833 m², Medium (>0.1 m² and < 1m²)

Expand to show TLE details & history
Last TLE update: 19 hours ago

TLE from 19 hours ago
0 GEESAT 2-02
1 58906U 24023B   25249.27884416  .00004741  00000-0  51703-3 0  9996
2 58906  49.9962 231.8684 0010392  96.5207 263.6917 14.89459661 86736
Epoch: 2025-09-06T06:41Z
TLE epoch observation values (Epoch: 2025-09-06T06:41:32.135Z)
Latitude
-0.00003°
Longitude
145.86952°
Altitude
600.972 km
Speed
7.56 km/s
True Right ascension
15h 27m 28s
True Declination
0° 00' 00"
Sunlit
Object was in daylight at epoch
Visualization orbit readout
Latitude
Unknown
Longitude
Unknown
Altitude
Unknown
Speed
Unknown
Apparent Right ascension
Unknown
Apparent Declination
Unknown
Sunlit
N/A
Visualization observer readout
Local Sidereal Time
18:02:04
Azimuth
Unknown
Elevation
Unknown
Doppler factor
Unknown
Orbital elements
Apogee altitude
607.636 km
Perigee altitude
593.132 km
Semi-major axis
6,978.521 km
Eccentricity
0.00104
Inclination
49.9962°
RAAN
231.8684°
Arg. of periapsis
96.5207°
True anomaly
263.57335°
Mean anomaly
263.6917°
Eccentric anomaly
263.63253°
Mean motion
3.72304 °/min
Orbital period
96.7 mins
BSTAR
0.00051703
Loading maneuver chart data...
Computing Atmospheric mass density...
Loading historical data...
Loading historical data...
Loading historical data...
Loading historical data...
Loading historical data...
Loading historical data...
Loading historical data...

Documentation

Showing up to 5 results
|